[[{"header":{"parameterUnit":"m.s-1","parameterCategory":1,"la1":30.2991,"la2":30.254,"lo1":-89.0895,"lo2":-89.0444,"dy":0.0017,"dx":0.0017,"nx":28,"ny":28,"refTime":"2025-03-12T21:00:00:Z","depth":0,"parameterNumber":2,"parameterNumberName":"U-component_of_WINDS"},"data":[0,0,0,0,0,0,0,0,0,0,0,0,0,0,0,0,0,0,0,0,0,0,0,0,0,0,0,0,0,0,0,0,0,0,0,0,0,0,0,0,0,0,0,0,0,0,0,0,0,0,0,0,0,0,0,0,0,0,-0.7711,-0.7711,0,-0.7744,-0.7745,-0.7745,-0.7746,-0.7746,-0.7745,-0.7745,-0.7782,-0.7783,-0.7784,0,0,0,0,0,0,0,0,0,0,0,0,0,-0.7649,-0.765,-0.7711,-0.7711,-0.7711,-0.7744,-0.7745,-0.7745,-0.7746,-0.7746,-0.7745,-0.7745,-0.7781,-0.7783,-0.7784,0,0,0,0,0,0,0,0,0,0,0,0,0,-0.7679,-0.7651,-0.7711,-0.7716,-0.7717,-0.7744,-0.7745,-0.7745,-0.7746,-0.7746,-0.7745,-0.7745,-0.7781,-0.7783,-0.7785,-0.7809,0,0,-0.7791,-0.7792,0,0,0,0,0,0,0,0,-0.7677,-0.7681,-0.7715,-0.7716,-0.7717,-0.774,-0.7736,-0.7767,-0.7747,-0.7735,-0.7745,-0.7744,-0.7768,-0.7771,-0.7779,-0.7811,-0.7812,-0.7791,-0.7792,-0.7793,-0.7794,0,0,0,0,0,0,0,-0.7675,-0.768,-0.7724,-0.7715,-0.7716,-0.7717,-0.7721,-0.7742,-0.7755,-0.7736,-0.7736,-0.774,-0.7769,-0.7777,-0.778,-0.7813,-0.7791,-0.7793,-0.7794,-0.7795,-0.7866,-0.7867,0,0,0,0,0,0,-0.7672,-0.7678,-0.7723,-0.7725,-0.7695,-0.7719,-0.7723,-0.7733,-0.7755,-0.7757,-0.7741,-0.774,-0.7774,-0.7778,-0.7781,-0.7811,-0.7793,-0.7795,-0.7796,-0.7866,-0.7866,-0.7867,0,0,0,0,0,0,-0.767,-0.7676,-0.7721,-0.7701,-0.7707,-0.7721,-0.7732,-0.7734,-0.7743,-0.7758,-0.7761,-0.7747,-0.7774,-0.7778,-0.7802,-0.7812,-0.7796,-0.7798,-0.7865,-0.7866,-0.7867,-0.7871,0,0,0,0,0,0,-0.7669,-0.7675,-0.7684,-0.7702,-0.7708,-0.7741,-0.7733,-0.7735,-0.7746,-0.7745,-0.7764,-0.7767,-0.7774,-0.7799,-0.7804,-0.7815,-0.7799,-0.7864,-0.7865,-0.7866,-0.787,-0.7872,-0.7873,0,0,0,0,0,-0.7666,-0.7685,-0.7685,-0.769,-0.772,-0.7742,-0.7746,-0.7752,-0.7747,-0.7756,-0.7766,-0.7766,-0.781,-0.7801,-0.7807,-0.7818,-0.7863,-0.7865,-0.7866,-0.7869,-0.7871,-0.7873,0,0,0,0,0,0,-0.7669,-0.7687,-0.7687,-0.7712,-0.7725,-0.7742,-0.7754,-0.7755,-0.777,-0.777,-0.7778,-0.7782,-0.7805,-0.7815,-0.7804,-0.7843,-0.7836,-0.7839,-0.7836,-0.7839,-0.784,-0.7837,-0.7801,0,0,0,0,0,-0.7672,-0.7688,-0.7703,-0.7723,-0.773,-0.7741,-0.775,-0.7754,-0.7769,-0.7774,-0.7786,-0.7801,-0.7818,-0.7829,-0.7846,-0.7871,-0.7875,-0.7882,-0.7884,-0.7885,-0.7887,-0.7901,-0.7904,-0.7872,-0.7872,-0.7872,0,0,-0.7679,-0.7691,-0.7701,-0.7724,-0.7735,-0.7751,-0.7745,-0.7763,-0.7775,-0.7777,-0.78,-0.7809,-0.7826,-0.785,-0.7862,-0.7859,-0.7897,-0.7887,-0.7888,-0.789,-0.7903,-0.7906,-0.7909,-0.7873,-0.7873,-0.7873,0,0,-0.77,-0.7711,-0.7728,-0.7739,-0.7755,-0.7762,-0.7766,-0.7783,-0.7789,-0.7811,-0.7813,-0.7829,-0.7858,-0.787,-0.7879,-0.7905,-0.7905,-0.791,-0.7919,-0.7933,-0.7935,-0.7937,-0.7946,-0.7949,-0.7912,-0.7912,-0.7912,0,-0.7707,-0.7731,-0.7737,-0.7754,-0.7764,-0.7767,-0.7784,-0.7795,-0.7816,-0.7823,-0.7819,-0.7856,-0.7867,-0.7894,-0.79,-0.7909,-0.7913,-0.7907,-0.7934,-0.7937,-0.7939,-0.7947,-0.795,-0.7913,-0.7913,-0.7913,-0.7912,0,-0.7738,-0.7755,-0.7767,-0.7786,-0.7798,-0.7815,-0.7824,-0.7835,-0.7839,-0.7846,-0.7869,-0.7883,-0.7902,-0.7909,-0.7913,-0.7937,-0.7934,-0.7932,-0.7925,-0.7942,-0.7949,-0.7953,-0.7913,-0.7913,-0.7913,-0.7913,0,0,-0.7761,-0.7783,-0.7788,-0.7796,-0.7814,-0.7827,-0.7845,-0.7863,-0.7872,-0.7886,-0.7901,-0.7926,-0.7924,-0.7935,-0.794,-0.7952,-0.797,-0.7949,-0.7949,-0.7951,-0.7996,-0.7997,-0.8,-0.7971,-0.7972,-0.7972,-0.7995,0,-0.7783,-0.7814,-0.782,-0.7846,-0.7861,-0.7864,-0.7879,-0.7892,-0.79,-0.7914,-0.7923,-0.794,-0.7937,-0.7943,-0.7955,-0.7965,-0.7979,-0.7964,-0.7985,-0.7986,-0.7979,-0.8004,-0.8005,-0.8026,-0.7998,-0.7998,-0.7999,0,-0.7813,-0.7827,-0.7855,-0.787,-0.7876,-0.789,-0.7906,-0.792,-0.7935,-0.794,-0.7952,-0.7956,-0.7975,-0.7968,-0.7994,-0.7983,-0.7992,-0.7999,-0.8,-0.8001,-0.7992,-0.8006,-0.8032,-0.8035,-0.8004,-0.8003,-0.8003,0,-0.7826,-0.7852,-0.7871,-0.7879,-0.7897,-0.7907,-0.7915,-0.7929,-0.7939,-0.7954,-0.7961,-0.7978,-0.7988,-0.8002,-0.801,-0.8004,-0.8035,-0.8029,-0.804,-0.804,-0.8046,-0.8045,-0.8073,-0.8053,-0.8053,-0.8053,-0.8053,0,-0.7849,-0.7866,-0.7877,-0.7889,-0.7908,-0.7915,-0.7934,-0.7942,-0.7955,-0.7969,-0.7973,-0.7986,-0.7997,-0.8012,-0.8019,-0.8039,-0.8044,-0.8048,-0.805,-0.8047,-0.8046,-0.8053,-0.8051,-0.8054,-0.8054,-0.8053,-0.8053,0,-0.7866,-0.7875,-0.7896,-0.7912,-0.7916,-0.7929,-0.7942,-0.7954,-0.7962,-0.798,-0.7984,-0.7997,-0.8015,-0.8025,-0.8048,-0.8052,-0.8074,-0.8076,-0.8069,-0.8069,-0.8079,-0.8078,-0.8112,-0.8116,-0.8094,-0.8094,-0.8094,0,-0.788,-0.7893,-0.7909,-0.7918,-0.7926,-0.7941,-0.7951,-0.796,-0.797,-0.7988,-0.7997,-0.8015,-0.8029,-0.8058,-0.807,-0.8087,-0.8088,-0.8099,-0.8091,-0.8088,-0.8087,-0.8086,-0.8087,-0.81,-0.81,-0.81,-0.81,0,-0.7904,-0.7907,-0.7921,-0.7936,-0.7948,-0.7961,-0.7973,-0.7981,-0.7991,-0.8003,-0.802,-0.8031,-0.8054,-0.8071,-0.809,-0.8099,-0.8101,-0.8103,-0.8106,-0.8103,-0.8098,-0.81,-0.8072,-0.8102,-0.8102,-0.8102,-0.8102,-0.8102,-0.7919,-0.793,-0.7943,-0.7958,-0.7968,-0.798,-0.7991,-0.8,-0.8015,-0.8033,-0.8037,-0.8056,-0.807,-0.8095,-0.8105,-0.812,-0.8118,-0.8123,-0.8124,-0.8125,-0.8124,-0.8097,-0.8123,-0.8123,-0.8123,-0.8123,-0.8123,0,-0.7942,-0.795,-0.7964,-0.7981,-0.7993,-0.7994,-0.8008,-0.8018,-0.8033,-0.8046,-0.806,-0.808,-0.8097,-0.811,-0.8128,-0.8137,-0.8139,-0.8141,-0.814,-0.8142,-0.8126,-0.812,-0.814,-0.814,-0.814,-0.814,-0.814,-0.814,-0.7955,-0.7973,-0.7978,-0.8001,-0.801,-0.8027,-0.8035,-0.8046,-0.8056,-0.8077,-0.8091,-0.8099,-0.8112,-0.8131,-0.8146,-0.815,-0.8156,-0.8158,-0.8162,-0.8146,-0.8144,-0.8142,-0.8137,-0.816,-0.816,-0.8177,-0.8177,-0.8177]},{"header":{"parameterUnit":"m.s-1","parameterCategory":1,"la1":30.2991,"la2":30.254,"lo1":-89.0895,"lo2":-89.0444,"dy":0.0017,"dx":0.0017,"nx":28,"ny":28,"refTime":"2025-03-12T21:00:00:Z","depth":0,"parameterNumber":3,"parameterNumberName":"V-component_of_WINDS"},"data":[0,0,0,0,0,0,0,0,0,0,0,0,0,0,0,0,0,0,0,0,0,0,0,0,0,0,0,0,0,0,0,0,0,0,0,0,0,0,0,0,0,0,0,0,0,0,0,0,0,0,0,0,0,0,0,0,0,0,3.5363,3.5364,0,3.5473,3.5475,3.5476,3.5485,3.5484,3.5483,3.5482,3.5593,3.5597,3.5601,0,0,0,0,0,0,0,0,0,0,0,0,0,3.5158,3.5162,3.5363,3.5364,3.5366,3.5473,3.5475,3.5476,3.5485,3.5484,3.5482,3.5481,3.5591,3.5596,3.5601,0,0,0,0,0,0,0,0,0,0,0,0,0,3.5255,3.5163,3.5363,3.5383,3.5386,3.5473,3.5475,3.5477,3.5486,3.5484,3.5482,3.548,3.559,3.5596,3.5602,3.5675,0,0,3.562,3.5623,0,0,0,0,0,0,0,0,3.525,3.5263,3.5379,3.5382,3.5385,3.5464,3.5443,3.5543,3.5486,3.5448,3.5481,3.5479,3.5551,3.556,3.5585,3.568,3.5685,3.5621,3.5625,3.5627,3.5629,0,0,0,0,0,0,0,3.5243,3.5258,3.5407,3.538,3.5385,3.5386,3.5398,3.5462,3.5508,3.5451,3.5452,3.5465,3.5553,3.5579,3.5588,3.5687,3.5621,3.5626,3.563,3.5632,3.5848,3.5849,0,0,0,0,0,0,3.5233,3.5253,3.5403,3.541,3.5312,3.5391,3.5405,3.544,3.5507,3.5516,3.5466,3.5465,3.5569,3.558,3.5591,3.5682,3.5627,3.5633,3.5636,3.5846,3.5848,3.585,0,0,0,0,0,0,3.5228,3.5246,3.5399,3.5332,3.5351,3.5397,3.5437,3.5443,3.547,3.5519,3.5527,3.5485,3.5568,3.5583,3.5654,3.5686,3.5636,3.5641,3.5843,3.5846,3.5849,3.5864,0,0,0,0,0,0,3.5222,3.5244,3.5273,3.5332,3.5355,3.546,3.5439,3.5447,3.5481,3.548,3.5539,3.5547,3.5568,3.5645,3.566,3.5694,3.5646,3.584,3.5844,3.5848,3.586,3.5867,3.5872,0,0,0,0,0,3.5215,3.5273,3.5275,3.5293,3.5392,3.5462,3.5475,3.5499,3.5483,3.5512,3.5544,3.5545,3.568,3.5652,3.567,3.5705,3.5839,3.5843,3.5848,3.5858,3.5865,3.5872,0,0,0,0,0,0,3.5216,3.5281,3.5284,3.5362,3.5407,3.5464,3.5501,3.5506,3.5556,3.5553,3.558,3.5593,3.5664,3.5691,3.566,3.5779,3.5757,3.5766,3.5759,3.5767,3.5772,3.5765,3.5651,0,0,0,0,0,3.5225,3.5278,3.5331,3.5395,3.5417,3.5455,3.5487,3.5501,3.5548,3.5567,3.5604,3.5649,3.5701,3.5735,3.5786,3.5864,3.5877,3.5897,3.5902,3.5907,3.5914,3.5957,3.5967,3.5865,3.5865,3.5865,0,0,3.5245,3.5287,3.5318,3.5396,3.5433,3.5486,3.5471,3.5528,3.5568,3.5575,3.5646,3.5674,3.5726,3.5801,3.5835,3.5826,3.5945,3.5913,3.5916,3.5921,3.5963,3.5973,3.5981,3.5869,3.5868,3.5867,0,0,3.5309,3.5345,3.5403,3.544,3.5495,3.552,3.5533,3.5589,3.5609,3.568,3.5687,3.5733,3.5823,3.586,3.5891,3.5967,3.597,3.5983,3.6014,3.6056,3.6064,3.6071,3.6099,3.6108,3.599,3.599,3.599,0,3.5326,3.5407,3.5432,3.5489,3.5523,3.5533,3.5591,3.5625,3.5693,3.5716,3.5705,3.5818,3.5853,3.5937,3.5956,3.598,3.5996,3.5977,3.606,3.6068,3.6075,3.6102,3.6112,3.5991,3.5991,3.5991,3.599,0,3.5427,3.5483,3.5522,3.5589,3.5627,3.5685,3.5717,3.5753,3.5763,3.5789,3.5861,3.5904,3.5964,3.5984,3.5995,3.607,3.6062,3.6055,3.6034,3.6086,3.6111,3.6122,3.5993,3.5992,3.5992,3.5992,0,0,3.5495,3.5574,3.5589,3.5619,3.568,3.5724,3.5781,3.584,3.587,3.5916,3.5965,3.6041,3.6034,3.6069,3.6084,3.612,3.6179,3.6109,3.611,3.6121,3.6264,3.6269,3.6281,3.6181,3.6183,3.6184,3.6259,0,3.5566,3.567,3.5693,3.5781,3.5833,3.5843,3.5893,3.5935,3.596,3.6007,3.6035,3.6088,3.6076,3.6097,3.6133,3.6164,3.6208,3.6159,3.6226,3.6228,3.6214,3.6294,3.6301,3.637,3.627,3.6271,3.6273,0,3.5664,3.5713,3.5807,3.5861,3.5884,3.5928,3.5984,3.6029,3.6077,3.6093,3.6131,3.6142,3.6201,3.6176,3.6258,3.6224,3.6252,3.6272,3.6275,3.6283,3.6254,3.6305,3.6392,3.6403,3.6288,3.6287,3.6286,0,3.5705,3.5795,3.5863,3.5889,3.5953,3.5984,3.6012,3.6059,3.6093,3.6141,3.6163,3.6217,3.6247,3.6289,3.6314,3.6293,3.6394,3.6371,3.6409,3.6408,3.643,3.6429,3.6524,3.6447,3.6447,3.6447,3.6447,0,3.5783,3.584,3.5883,3.5925,3.5989,3.6014,3.6077,3.6105,3.6145,3.6193,3.6203,3.6247,3.6277,3.6325,3.6344,3.6409,3.6422,3.6437,3.6441,3.6436,3.6435,3.6456,3.6453,3.645,3.6449,3.6448,3.6448,0,3.5841,3.5872,3.5946,3.6001,3.6016,3.6061,3.6108,3.6149,3.6173,3.6233,3.6248,3.6287,3.6344,3.6373,3.6443,3.6456,3.653,3.6531,3.6514,3.6516,3.6553,3.6549,3.6666,3.6683,3.6594,3.6594,3.6595,0,3.5889,3.5934,3.5993,3.6026,3.6055,3.6107,3.6142,3.6168,3.6204,3.6261,3.6295,3.6352,3.64,3.6489,3.6524,3.6577,3.6581,3.6618,3.6589,3.6582,3.6582,3.658,3.6584,3.6623,3.6624,3.6625,3.6625,0,3.5972,3.5985,3.6035,3.6091,3.6132,3.6177,3.6221,3.6246,3.6279,3.6319,3.6377,3.6414,3.6486,3.6542,3.6598,3.6627,3.6632,3.6634,3.6646,3.6642,3.663,3.6638,3.6529,3.6632,3.6631,3.663,3.663,3.663,3.6028,3.6068,3.6116,3.6171,3.6207,3.6248,3.6289,3.6319,3.6368,3.6429,3.6441,3.6503,3.6549,3.6625,3.6655,3.6703,3.6695,3.6712,3.6716,3.672,3.6722,3.6622,3.6713,3.6713,3.6713,3.6713,3.6712,0,3.6112,3.6143,3.6194,3.6255,3.6299,3.6299,3.6348,3.6384,3.6439,3.6481,3.6527,3.6594,3.6649,3.6687,3.6743,3.6774,3.6778,3.6788,3.6786,3.6793,3.6726,3.6711,3.6784,3.6784,3.6784,3.6784,3.6784,3.6784,3.6161,3.6229,3.6247,3.6332,3.6363,3.6424,3.6452,3.6489,3.6523,3.6598,3.6644,3.6668,3.6709,3.6767,3.6817,3.6827,3.6847,3.6858,3.6867,3.6805,3.6797,3.679,3.6776,3.6861,3.6862,3.693,3.6931,3.6931]}]]